Weather in Pobeda

Russia / Khabarovsk Krai     49°03′40″N   134°19′36″E
temp.,
°C
wind,
m/s
gust,
m/s
humid.,
%
clouds,
%
prec.,
mm/h
press.,
hPa
HPBL,
m
26 february, fri
fri2601:00−21s119352 0.0 102520
04:00−21s119370 0.0 102420
07:00−22sse119597 0.0 102620
10:00−19s118969 0.0 1027159
13:00−14sw227674 0.0 1028425
16:00−11sw237162 0.0 1027606
19:00−17s23931 0.0 103043
22:00−18sw11901 0.0 103220
27 february, sat
sat2701:00−19wsw12900 0.0 103322
04:00−19sw22910 0.0 103428
07:00−20ssw23930 0.0 103435
10:00−18ssw34890 0.0 1033213
13:00−15ssw348467 0.0 1032390
16:00−13s248283 0.0 1028452
19:00−15ene129299 0.0 102525
22:00−15ne2292100 0.0 102322
28 february, sun
sun2801:00−14e1197100 0.6 101932
04:00−13w0197100 2.1 101721
07:00−12wsw2396100 0.2 1017117
10:00−11wsw3589100 0.2 1016199
13:00−5w6107195 0.0 1018870
16:00−6wnw7125898 0.0 1019963
19:00−12wnw6146564 0.0 1022515
22:00−15wnw7157149 0.0 1024563
1 march, mon
mon101:00−18w512770 0.0 1026482
04:00−19w513780 0.0 1028531
07:00−20w613740 0.0 1030478
10:00−18w712600 0.0 1031876
13:00−13wnw712500 0.0 10311609
16:00−13wnw711550 0.0 10301702
19:00−17wnw496968 0.0 1031207
22:00−19wnw3107739 0.0 1032230
2 march, tue
tue201:00−21wnw410810 0.0 1032281
04:00−22w36810 0.0 1033119
07:00−23w47820 0.0 1034146
10:00−20w46760 0.0 1033250
13:00−15w46610 0.0 1032799
16:00−15sw45680 0.0 1030625
19:00−20ssw23900 0.0 103024
22:00−21ssw22900 0.0 103022